Simultaneous Nadir Overpasses (SNOs) Predictions

Prediction of SNOs between METOP-A and TERRA Satellite Orbit:

Table of predicted SNOs for the next 14.0 days since TLE Epoch: 8/15/2015
Index Date (METOP-A) Time (METOP-A) Lat,Lon (METOP-A) SZA (METOP-A ) Date (TERRA) Time (TERRA) Lat,Lon (TERRA) SZA (TERRA ) Distance(km) Time Diff (sec)
1 08/17/2015 16:40:26 81.35, -22.20 70.79 08/17/2015 16:41:19 81.35, -22.16 70.82 0.87 53
2 08/17/2015 17:31:04 -81.36, 145.96 109.10 08/17/2015 17:30:44 -81.36, 145.79 109.13 2.86 20
3 08/20/2015 12:14:46 81.35, 44.39 71.74 08/20/2015 12:15:31 81.35, 44.40 71.76 0.25 45
4 08/20/2015 13:05:26 -81.36,-147.83 108.20 08/20/2015 13:04:58 -81.35,-148.01 108.24 3.14 28
5 08/23/2015 07:49:07 81.35, 110.95 72.71 08/23/2015 07:49:44 81.35, 110.91 72.72 0.78 37
6 08/
